| time (UTC) | temp F | wind direction | speed MPH | gust MPH | rain 1hr in | rain 24hr in | rain mn in | humidity % | barometer mb |
| 20260507234503 | 58 | 295 | 3.0 | 5.0 | 0.00 | 0.00 | 0.00 | 48 | 1013.5 |
| 20260507234003 | 58 | 295 | 3.0 | 5.0 | 0.00 | 0.00 | 0.00 | 47 | 1013.4 |
| 20260507233503 | 59 | 299 | 3.0 | 5.0 | 0.00 | 0.00 | 0.00 | 47 | 1013.3 |
| 20260507233003 | 60 | 301 | 2.0 | 4.0 | 0.00 | 0.00 | 0.00 | 45 | 1013.3 |
| 20260507232503 | 60 | 292 | 2.0 | 4.0 | 0.00 | 0.00 | 0.00 | 46 | 1013.3 |
| 20260507232024 | 60 | 283 | 3.0 | 5.0 | 0.00 | 0.00 | 0.00 | 43 | 1013.3 |
| 20260507231503 | 60 | 283 | 4.0 | 7.0 | 0.00 | 0.00 | 0.00 | 42 | 1013.4 |
| 20260507231024 | 60 | 287 | 4.0 | 7.0 | 0.00 | 0.00 | 0.00 | 44 | 1013.4 |
| 20260507230503 | 61 | 295 | 4.0 | 6.0 | 0.00 | 0.00 | 0.00 | 44 | 1013.4 |
| 20260507230003 | 61 | 296 | 4.0 | 7.0 | 0.00 | 0.00 | 0.00 | 43 | 1013.4 |
| 20260507225503 | 62 | 296 | 3.0 | 7.0 | 0.00 | 0.00 | 0.00 | 44 | 1013.4 |
| 20260507225003 | 62 | 301 | 3.0 | 6.0 | 0.00 | 0.00 | 0.00 | 42 | 1013.3 |
| 20260507224524 | 63 | 308 | 3.0 | 6.0 | 0.00 | 0.00 | 0.00 | 42 | 1013.3 |
| 20260507224003 | 62 | 331 | 2.0 | 6.0 | 0.00 | 0.00 | 0.00 | 42 | 1013.2 |
| 20260507223503 | 62 | 315 | 3.0 | 6.0 | 0.00 | 0.00 | 0.00 | 43 | 1013.2 |
| 20260507223003 | 62 | 296 | 3.0 | 6.0 | 0.00 | 0.00 | 0.00 | 44 | 1013.2 |
| 20260507222503 | 63 | 292 | 3.0 | 7.0 | 0.00 | 0.00 | 0.00 | 43 | 1013.3 |
| 20260507222024 | 63 | 288 | 3.0 | 7.0 | 0.00 | 0.00 | 0.00 | 42 | 1013.3 |
| 20260507221503 | 63 | 285 | 4.0 | 8.0 | 0.00 | 0.00 | 0.00 | 44 | 1013.3 |
| 20260507221003 | 63 | 294 | 4.0 | 8.0 | 0.00 | 0.00 | 0.00 | 42 | 1013.5 |
| 20260507220524 | 63 | 295 | 3.0 | 7.0 | 0.00 | 0.00 | 0.00 | 39 | 1013.4 |
| 20260507220003 | 63 | 288 | 4.0 | 10.0 | 0.00 | 0.00 | 0.00 | 43 | 1013.4 |
| 20260507215503 | 63 | 286 | 4.0 | 10.0 | 0.00 | 0.00 | 0.00 | 41 | 1013.4 |
| 20260507215003 | 64 | 278 | 5.0 | 8.0 | 0.00 | 0.00 | 0.00 | 44 | 1013.4 |
| 20260507214503 | 63 | 292 | 4.0 | 8.0 | 0.00 | 0.00 | 0.00 | 40 | 1013.4 |
| 20260507214003 | 63 | 303 | 4.0 | 8.0 | 0.00 | 0.00 | 0.00 | 44 | 1013.2 |
| 20260507213503 | 64 | 291 | 4.0 | 8.0 | 0.00 | 0.00 | 0.00 | 45 | 1013.2 |
| 20260507213003 | 63 | 302 | 3.0 | 6.0 | 0.00 | 0.00 | 0.00 | 36 | 1013.2 |
| 20260507212524 | 63 | 312 | 3.0 | 7.0 | 0.00 | 0.00 | 0.00 | 44 | 1013.1 |
| 20260507212003 | 63 | 314 | 4.0 | 9.0 | 0.00 | 0.00 | 0.00 | 44 | 1013.0 |
| 20260507211524 | 63 | 308 | 5.0 | 11.0 | 0.00 | 0.00 | 0.00 | 45 | 1013.1 |
| 20260507211024 | 63 | 296 | 4.0 | 11.0 | 0.00 | 0.00 | 0.00 | 40 | 1013.0 |
| 20260507210524 | 63 | 317 | 3.0 | 7.0 | 0.00 | 0.00 | 0.00 | 41 | 1013.1 |
| 20260507210003 | 64 | 307 | 4.0 | 10.0 | 0.00 | 0.00 | 0.00 | 43 | 1013.1 |
| 20260507205503 | 64 | 292 | 4.0 | 10.0 | 0.00 | 0.00 | 0.00 | 41 | 1013.0 |
| 20260507205003 | 64 | 289 | 5.0 | 10.0 | 0.00 | 0.00 | 0.00 | 39 | 1013.0 |
| 20260507204503 | 64 | 282 | 5.0 | 8.0 | 0.00 | 0.00 | 0.00 | 44 | 1013.1 |
| 20260507204003 | 64 | 282 | 5.0 | 11.0 | 0.00 | 0.00 | 0.00 | 44 | 1013.1 |
| 20260507203524 | 64 | 282 | 5.0 | 11.0 | 0.00 | 0.00 | 0.00 | 44 | 1013.1 |
| 20260507203003 | 64 | 283 | 5.0 | 9.0 | 0.00 | 0.00 | 0.00 | 40 | 1013.0 |
| 20260507202503 | 63 | 306 | 4.0 | 8.0 | 0.00 | 0.00 | 0.00 | 47 | 1013.0 |
| 20260507202003 | 63 | 310 | 5.0 | 10.0 | 0.00 | 0.00 | 0.00 | 37 | 1013.0 |
| 20260507201503 | 63 | 284 | 5.0 | 13.0 | 0.00 | 0.00 | 0.00 | 44 | 1013.0 |
| 20260507201003 | 63 | 268 | 4.0 | 13.0 | 0.00 | 0.00 | 0.00 | 43 | 1013.1 |
| 20260507200524 | 63 | 283 | 4.0 | 9.0 | 0.00 | 0.00 | 0.00 | 46 | 1013.2 |
| 20260507200003 | 63 | 304 | 5.0 | 8.0 | 0.00 | 0.00 | 0.00 | 44 | 1013.2 |
| 20260507195503 | 63 | 309 | 4.0 | 8.0 | 0.00 | 0.00 | 0.00 | 43 | 1013.2 |
| 20260507195003 | 63 | 336 | 3.0 | 8.0 | 0.00 | 0.00 | 0.00 | 48 | 1013.2 |
| 20260507194503 | 62 | 3 | 3.0 | 8.0 | 0.00 | 0.00 | 0.00 | 41 | 1013.1 |
| 20260507194003 | 62 | 320 | 4.0 | 9.0 | 0.00 | 0.00 | 0.00 | 44 | 1013.3 |
| 20260507193524 | 63 | 291 | 5.0 | 9.0 | 0.00 | 0.00 | 0.00 | 43 | 1013.3 |
| 20260507193003 | 63 | 298 | 4.0 | 12.0 | 0.00 | 0.00 | 0.00 | 50 | 1013.2 |
| 20260507192503 | 63 | 318 | 4.0 | 12.0 | 0.00 | 0.00 | 0.00 | 48 | 1013.2 |
| 20260507192003 | 62 | 326 | 3.0 | 9.0 | 0.00 | 0.00 | 0.00 | 45 | 1013.3 |
| 20260507191503 | 62 | 284 | 3.0 | 8.0 | 0.00 | 0.00 | 0.00 | 42 | 1013.2 |
| 20260507191003 | 62 | 284 | 4.0 | 9.0 | 0.00 | 0.00 | 0.00 | 43 | 1013.4 |
| 20260507190503 | 63 | 281 | 5.0 | 9.0 | 0.00 | 0.00 | 0.00 | 47 | 1013.5 |
| 20260507190004 | 63 | 281 | 6.0 | 12.0 | 0.00 | 0.00 | 0.00 | 43 | 1013.5 |
| 20260507185503 | 62 | 302 | 5.0 | 12.0 | 0.00 | 0.00 | 0.00 | 49 | 1013.6 |
| 20260507185003 | 62 | 316 | 4.0 | 9.0 | 0.00 | 0.00 | 0.00 | 49 | 1013.6 |
| 20260507184503 | 62 | 301 | 3.0 | 7.0 | 0.00 | 0.00 | 0.00 | 46 | 1013.6 |
| 20260507184003 | 62 | 299 | 4.0 | 13.0 | 0.00 | 0.00 | 0.00 | 47 | 1013.6 |
| 20260507183503 | 62 | 289 | 5.0 | 13.0 | 0.00 | 0.00 | 0.00 | 47 | 1013.5 |
| 20260507183024 | 62 | 298 | 5.0 | 10.0 | 0.00 | 0.00 | 0.00 | 52 | 1013.6 |
| 20260507182524 | 62 | 294 | 5.0 | 13.0 | 0.00 | 0.00 | 0.00 | 49 | 1013.6 |
| 20260507182003 | 62 | 286 | 5.0 | 13.0 | 0.00 | 0.00 | 0.00 | 50 | 1013.7 |
| 20260507181503 | 61 | 297 | 4.0 | 8.0 | 0.00 | 0.00 | 0.00 | 56 | 1013.7 |
| 20260507181003 | 61 | 294 | 4.0 | 7.0 | 0.00 | 0.00 | 0.00 | 50 | 1013.7 |
| 20260507180503 | 61 | 268 | 3.0 | 7.0 | 0.00 | 0.00 | 0.00 | 55 | 1013.7 |
| 20260507180003 | 60 | 256 | 4.0 | 9.0 | 0.00 | 0.00 | 0.00 | 42 | 1013.7 |
| 20260507175503 | 60 | 290 | 5.0 | 9.0 | 0.00 | 0.00 | 0.00 | 46 | 1013.8 |
| 20260507175003 | 61 | 310 | 5.0 | 10.0 | 0.00 | 0.00 | 0.00 | 46 | 1013.9 |
| 20260507174503 | 61 | 283 | 5.0 | 11.0 | 0.00 | 0.00 | 0.00 | 47 | 1013.7 |
| 20260507174003 | 60 | 264 | 4.0 | 11.0 | 0.00 | 0.00 | 0.00 | 54 | 1013.7 |
| 20260507173524 | 60 | 262 | 4.0 | 11.0 | 0.00 | 0.00 | 0.00 | 48 | 1014.0 |
| 20260507173004 | 60 | 256 | 5.0 | 12.0 | 0.00 | 0.00 | 0.00 | 48 | 1014.2 |
| 20260507172503 | 61 | 254 | 5.0 | 12.0 | 0.00 | 0.00 | 0.00 | 51 | 1014.2 |
| 20260507172003 | 60 | 269 | 5.0 | 11.0 | 0.00 | 0.00 | 0.00 | 45 | 1014.3 |
| 20260507171503 | 61 | 280 | 5.0 | 9.0 | 0.00 | 0.00 | 0.00 | 56 | 1014.4 |
| 20260507171003 | 60 | 277 | 4.0 | 9.0 | 0.00 | 0.00 | 0.00 | 56 | 1014.5 |
| 20260507170524 | 60 | 272 | 4.0 | 10.0 | 0.00 | 0.00 | 0.00 | 53 | 1014.5 |
| 20260507170024 | 60 | 285 | 5.0 | 11.0 | 0.00 | 0.00 | 0.00 | 56 | 1014.7 |
| 20260507165503 | 60 | 306 | 5.0 | 11.0 | 0.00 | 0.00 | 0.00 | 55 | 1014.8 |
| 20260507165003 | 60 | 333 | 4.0 | 9.0 | 0.00 | 0.00 | 0.00 | 52 | 1014.7 |
| 20260507164503 | 60 | 304 | 5.0 | 11.0 | 0.00 | 0.00 | 0.00 | 53 | 1014.8 |
| 20260507164003 | 60 | 286 | 4.0 | 11.0 | 0.00 | 0.00 | 0.00 | 53 | 1014.7 |
| 20260507163524 | 60 | 288 | 4.0 | 10.0 | 0.00 | 0.00 | 0.00 | 60 | 1014.6 |
| 20260507163003 | 60 | 279 | 4.0 | 11.0 | 0.00 | 0.00 | 0.00 | 51 | 1014.7 |
| 20260507162503 | 60 | 272 | 4.0 | 11.0 | 0.00 | 0.00 | 0.00 | 54 | 1014.7 |
| 20260507162024 | 59 | 277 | 4.0 | 10.0 | 0.00 | 0.00 | 0.00 | 54 | 1014.8 |
| 20260507161503 | 59 | 296 | 5.0 | 10.0 | 0.00 | 0.00 | 0.00 | 56 | 1014.9 |
| 20260507161024 | 59 | 290 | 6.0 | 10.0 | 0.00 | 0.00 | 0.00 | 50 | 1014.8 |
| 20260507160503 | 59 | 289 | 5.0 | 10.0 | 0.00 | 0.00 | 0.00 | 51 | 1014.9 |
| 20260507160003 | 59 | 296 | 4.0 | 8.0 | 0.00 | 0.00 | 0.00 | 56 | 1014.8 |
| 20260507155524 | 59 | 289 | 4.0 | 8.0 | 0.00 | 0.00 | 0.00 | 59 | 1014.9 |
| 20260507155003 | 59 | 283 | 5.0 | 8.0 | 0.00 | 0.00 | 0.00 | 58 | 1014.9 |
| 20260507154503 | 58 | 290 | 4.0 | 8.0 | 0.00 | 0.00 | 0.00 | 59 | 1015.0 |
| 20260507154003 | 59 | 299 | 5.0 | 10.0 | 0.00 | 0.00 | 0.00 | 53 | 1014.9 |
| 20260507153504 | 59 | 292 | 5.0 | 10.0 | 0.00 | 0.00 | 0.00 | 58 | 1014.9 |
| 20260507153003 | 58 | 284 | 4.0 | 9.0 | 0.00 | 0.00 | 0.00 | 51 | 1014.8 |
| 20260507152503 | 58 | 284 | 4.0 | 7.0 | 0.00 | 0.00 | 0.00 | 54 | 1014.8 |
| 20260507152003 | 58 | 286 | 3.0 | 7.0 | 0.00 | 0.00 | 0.00 | 60 | 1014.7 |
| 20260507151524 | 57 | 301 | 3.0 | 8.0 | 0.00 | 0.00 | 0.00 | 54 | 1014.6 |
| 20260507151003 | 57 | 339 | 4.0 | 9.0 | 0.00 | 0.00 | 0.00 | 50 | 1014.7 |
| 20260507150503 | 57 | 354 | 4.0 | 9.0 | 0.00 | 0.00 | 0.00 | 52 | 1014.7 |
| 20260507150003 | 57 | 328 | 4.0 | 7.0 | 0.00 | 0.00 | 0.00 | 52 | 1014.7 |
| 20260507145503 | 57 | 314 | 4.0 | 9.0 | 0.00 | 0.00 | 0.00 | 54 | 1014.7 |
| 20260507145003 | 57 | 351 | 3.0 | 9.0 | 0.00 | 0.00 | 0.00 | 54 | 1014.7 |
| 20260507144503 | 56 | 330 | 4.0 | 8.0 | 0.00 | 0.00 | 0.00 | 55 | 1014.7 |
| 20260507144024 | 56 | 298 | 4.0 | 8.0 | 0.00 | 0.00 | 0.00 | 54 | 1014.7 |
| 20260507143503 | 56 | 358 | 3.0 | 8.0 | 0.00 | 0.00 | 0.00 | 59 | 1014.6 |
| 20260507143003 | 56 | 358 | 4.0 | 8.0 | 0.00 | 0.00 | 0.00 | 59 | 1014.6 |
| 20260507142503 | 56 | 335 | 3.0 | 7.0 | 0.00 | 0.00 | 0.00 | 61 | 1014.7 |
| 20260507142003 | 55 | 330 | 4.0 | 8.0 | 0.00 | 0.00 | 0.00 | 58 | 1014.8 |
| 20260507141503 | 55 | 346 | 4.0 | 8.0 | 0.00 | 0.00 | 0.00 | 55 | 1014.7 |
| 20260507141003 | 55 | 25 | 4.0 | 7.0 | 0.00 | 0.00 | 0.00 | 59 | 1014.7 |
| 20260507140503 | 55 | 353 | 4.0 | 8.0 | 0.00 | 0.00 | 0.00 | 56 | 1014.8 |
| 20260507140003 | 55 | 338 | 4.0 | 8.0 | 0.00 | 0.00 | 0.00 | 59 | 1014.8 |
| 20260507135503 | 55 | 346 | 4.0 | 8.0 | 0.00 | 0.00 | 0.00 | 63 | 1014.9 |
| 20260507135003 | 54 | 3 | 4.0 | 9.0 | 0.00 | 0.00 | 0.00 | 60 | 1014.9 |
| 20260507134503 | 54 | 28 | 5.0 | 9.0 | 0.00 | 0.00 | 0.00 | 62 | 1014.9 |
| 20260507134003 | 54 | 20 | 4.0 | 9.0 | 0.00 | 0.00 | 0.00 | 60 | 1014.9 |
| 20260507133503 | 54 | 14 | 3.0 | 6.0 | 0.00 | 0.00 | 0.00 | 61 | 1015.0 |
| 20260507133003 | 54 | 360 | 3.0 | 7.0 | 0.00 | 0.00 | 0.00 | 62 | 1014.9 |
| 20260507132503 | 53 | 352 | 4.0 | 7.0 | 0.00 | 0.00 | 0.00 | 65 | 1014.9 |
| 20260507132003 | 53 | 345 | 3.0 | 7.0 | 0.00 | 0.00 | 0.00 | 62 | 1014.8 |
| 20260507131503 | 53 | 353 | 3.0 | 7.0 | 0.00 | 0.00 | 0.00 | 67 | 1014.7 |
| 20260507131003 | 52 | 29 | 4.0 | 8.0 | 0.00 | 0.00 | 0.00 | 71 | 1014.7 |
| 20260507130503 | 52 | 28 | 5.0 | 10.0 | 0.00 | 0.00 | 0.00 | 66 | 1014.8 |
| 20260507130003 | 51 | 18 | 5.0 | 10.0 | 0.00 | 0.00 | 0.00 | 67 | 1014.8 |
| 20260507125524 | 51 | 10 | 4.0 | 9.0 | 0.00 | 0.00 | 0.00 | 68 | 1014.8 |
| 20260507125003 | 51 | 8 | 4.0 | 9.0 | 0.00 | 0.00 | 0.00 | 70 | 1014.9 |
| 20260507124503 | 50 | 360 | 4.0 | 8.0 | 0.00 | 0.00 | 0.00 | 70 | 1014.9 |
| 20260507124003 | 50 | 347 | 3.0 | 8.0 | 0.00 | 0.00 | 0.00 | 71 | 1015.0 |
| 20260507123503 | 50 | 351 | 3.0 | 8.0 | 0.00 | 0.00 | 0.00 | 73 | 1014.9 |
| 20260507123003 | 49 | 346 | 3.0 | 9.0 | 0.00 | 0.00 | 0.00 | 78 | 1014.9 |
| 20260507122503 | 48 | 333 | 4.0 | 9.0 | 0.00 | 0.00 | 0.00 | 77 | 1015.0 |
| 20260507122003 | 48 | 330 | 4.0 | 9.0 | 0.00 | 0.00 | 0.00 | 80 | 1015.0 |
| 20260507121503 | 48 | 330 | 4.0 | 9.0 | 0.00 | 0.00 | 0.00 | 80 | 1015.1 |
| 20260507121003 | 47 | 340 | 4.0 | 8.0 | 0.00 | 0.00 | 0.00 | 81 | 1015.1 |
| 20260507120503 | 47 | 341 | 3.0 | 7.0 | 0.00 | 0.01 | 0.00 | 83 | 1015.1 |
| 20260507120003 | 46 | 329 | 3.0 | 8.0 | 0.00 | 0.01 | 0.00 | 86 | 1015.0 |
| 20260507115503 | 46 | 326 | 3.0 | 8.0 | 0.00 | 0.01 | 0.00 | 87 | 1015.0 |
| 20260507115003 | 45 | 325 | 3.0 | 7.0 | 0.00 | 0.01 | 0.00 | 88 | 1015.0 |
| 20260507114503 | 44 | 323 | 3.0 | 6.0 | 0.00 | 0.01 | 0.00 | 90 | 1015.0 |
| 20260507114024 | 44 | 318 | 3.0 | 7.0 | 0.00 | 0.01 | 0.00 | 90 | 1014.9 |
| 20260507113503 | 43 | 318 | 2.0 | 7.0 | 0.00 | 0.01 | 0.00 | 94 | 1014.9 |
| 20260507113004 | 43 | 324 | 2.0 | 5.0 | 0.00 | 0.01 | 0.00 | 93 | 1014.9 |
| 20260507112503 | 42 | 329 | 2.0 | 4.0 | 0.00 | 0.01 | 0.00 | 94 | 1014.8 |
| 20260507112003 | 42 | 325 | 1.0 | 4.0 | 0.00 | 0.01 | 0.00 | 94 | 1014.7 |
| 20260507111504 | 42 | 319 | 1.0 | 3.0 | 0.00 | 0.01 | 0.00 | 94 | 1014.6 |
| 20260507111024 | 41 | 321 | 1.0 | 3.0 | 0.00 | 0.01 | 0.00 | 94 | 1014.5 |
| 20260507110524 | 41 | 321 | 2.0 | 4.0 | 0.00 | 0.01 | 0.00 | 94 | 1014.4 |
| 20260507110003 | 41 | 323 | 2.0 | 5.0 | 0.00 | 0.01 | 0.00 | 95 | 1014.3 |
| 20260507105524 | 41 | 324 | 2.0 | 5.0 | 0.00 | 0.01 | 0.00 | 95 | 1014.3 |
| 20260507105003 | 41 | 325 | 2.0 | 4.0 | 0.00 | 0.01 | 0.00 | 95 | 1014.3 |
| 20260507104503 | 41 | 322 | 1.0 | 3.0 | 0.00 | 0.01 | 0.00 | 95 | 1014.3 |
| 20260507104003 | 40 | 320 | 1.0 | 3.0 | 0.00 | 0.01 | 0.00 | 95 | 1014.2 |
| 20260507103503 | 40 | 323 | 1.0 | 2.0 | 0.00 | 0.01 | 0.00 | 95 | 1014.2 |
| 20260507103003 | 40 | 327 | 1.0 | 2.0 | 0.00 | 0.01 | 0.00 | 95 | 1014.1 |
| 20260507102503 | 40 | 338 | 0.0 | 1.0 | 0.00 | 0.01 | 0.00 | 94 | 1014.1 |
| 20260507102003 | 40 | 0 | 0.0 | 0.0 | 0.00 | 0.01 | 0.00 | 94 | 1014.0 |
| 20260507101524 | 41 | 0 | 0.0 | 0.0 | 0.00 | 0.01 | 0.00 | 94 | 1014.1 |
| 20260507101003 | 41 | 339 | 0.0 | 2.0 | 0.00 | 0.01 | 0.00 | 95 | 1014.2 |
| 20260507100503 | 41 | 339 | 1.0 | 3.0 | 0.00 | 0.01 | 0.00 | 94 | 1014.2 |
| 20260507100003 | 41 | 338 | 0.0 | 3.0 | 0.00 | 0.01 | 0.00 | 94 | 1014.1 |
| 20260507095524 | 41 | 0 | 0.0 | 0.0 | 0.00 | 0.01 | 0.00 | 94 | 1014.1 |
| 20260507095024 | 42 | 0 | 0.0 | 0.0 | 0.00 | 0.01 | 0.00 | 94 | 1014.1 |
| 20260507094503 | 42 | 0 | 0.0 | 0.0 | 0.00 | 0.01 | 0.00 | 95 | 1014.1 |
| 20260507094003 | 42 | 0 | 0.0 | 0.0 | 0.00 | 0.02 | 0.00 | 95 | 1014.1 |
| 20260507093503 | 42 | 0 | 0.0 | 0.0 | 0.00 | 0.02 | 0.00 | 94 | 1014.1 |
| 20260507093003 | 42 | 0 | 0.0 | 0.0 | 0.00 | 0.02 | 0.00 | 94 | 1014.1 |
| 20260507092524 | 42 | 0 | 0.0 | 0.0 | 0.00 | 0.02 | 0.00 | 94 | 1014.0 |
| 20260507092024 | 42 | 0 | 0.0 | 0.0 | 0.00 | 0.02 | 0.00 | 94 | 1013.9 |
| 20260507091503 | 42 | 0 | 0.0 | 0.0 | 0.00 | 0.03 | 0.00 | 94 | 1013.9 |
| 20260507091003 | 42 | 0 | 0.0 | 0.0 | 0.00 | 0.04 | 0.00 | 94 | 1013.9 |
| 20260507090503 | 42 | 0 | 0.0 | 0.0 | 0.00 | 0.04 | 0.00 | 93 | 1013.7 |
| 20260507090004 | 42 | 0 | 0.0 | 0.0 | 0.00 | 0.04 | 0.00 | 93 | 1013.8 |
| 20260507085503 | 42 | 327 | 0.0 | 3.0 | 0.00 | 0.04 | 0.00 | 93 | 1013.8 |
| 20260507085024 | 42 | 314 | 0.0 | 3.0 | 0.00 | 0.04 | 0.00 | 93 | 1013.8 |
| 20260507084503 | 43 | 301 | 1.0 | 2.0 | 0.00 | 0.04 | 0.00 | 94 | 1013.8 |
| 20260507084003 | 43 | 301 | 1.0 | 2.0 | 0.00 | 0.04 | 0.00 | 94 | 1013.8 |
| 20260507083524 | 43 | 301 | 0.0 | 2.0 | 0.00 | 0.04 | 0.00 | 93 | 1013.7 |
| 20260507083024 | 43 | 300 | 0.0 | 1.0 | 0.00 | 0.04 | 0.00 | 93 | 1013.7 |
| 20260507082503 | 43 | 304 | 0.0 | 1.0 | 0.00 | 0.04 | 0.00 | 93 | 1013.6 |
| 20260507082003 | 44 | 301 | 1.0 | 2.0 | 0.00 | 0.04 | 0.00 | 94 | 1013.7 |
| 20260507081503 | 44 | 300 | 1.0 | 2.0 | 0.00 | 0.05 | 0.00 | 94 | 1013.6 |
| 20260507081003 | 44 | 306 | 0.0 | 1.0 | 0.00 | 0.06 | 0.00 | 93 | 1013.5 |
| 20260507080503 | 44 | 0 | 0.0 | 0.0 | 0.00 | 0.08 | 0.00 | 93 | 1013.6 |
| 20260507080003 | 44 | 0 | 0.0 | 0.0 | 0.00 | 0.11 | 0.00 | 93 | 1013.6 |
| 20260507075503 | 44 | 0 | 0.0 | 0.0 | 0.00 | 0.12 | 0.00 | 93 | 1013.5 |
| 20260507075024 | 44 | 0 | 0.0 | 0.0 | 0.00 | 0.13 | 0.00 | 93 | 1013.6 |
| 20260507074503 | 45 | 0 | 0.0 | 0.0 | 0.00 | 0.15 | 0.00 | 93 | 1013.5 |
| 20260507074024 | 45 | 0 | 0.0 | 0.0 | 0.00 | 0.16 | 0.00 | 93 | 1013.6 |
| 20260507073524 | 45 | 0 | 0.0 | 0.0 | 0.00 | 0.16 | 0.00 | 93 | 1013.5 |
| 20260507073003 | 45 | 0 | 0.0 | 0.0 | 0.00 | 0.16 | 0.00 | 93 | 1013.6 |
| 20260507072503 | 45 | 0 | 0.0 | 0.0 | 0.00 | 0.17 | 0.00 | 93 | 1013.5 |
| 20260507072003 | 45 | 0 | 0.0 | 0.0 | 0.00 | 0.18 | 0.00 | 93 | 1013.5 |
| 20260507071504 | 45 | 334 | 0.0 | 1.0 | 0.00 | 0.20 | 0.00 | 93 | 1013.5 |
| 20260507071003 | 45 | 317 | 0.0 | 1.0 | 0.00 | 0.20 | 0.00 | 93 | 1013.4 |
| 20260507070524 | 45 | 319 | 0.0 | 1.0 | 0.00 | 0.22 | 0.00 | 92 | 1013.6 |
| 20260507070005 | 45 | 0 | 0.0 | 0.0 | 0.00 | 0.24 | 0.00 | 92 | 1013.4 |
| 20260507065503 | 46 | 299 | 0.0 | 2.0 | 0.00 | 0.25 | 0.00 | 92 | 1013.6 |
| 20260507065003 | 46 | 299 | 0.0 | 2.0 | 0.00 | 0.26 | 0.00 | 93 | 1013.5 |
| 20260507064503 | 46 | 300 | 0.0 | 1.0 | 0.00 | 0.27 | 0.00 | 92 | 1013.5 |
| 20260507064003 | 46 | 298 | 0.0 | 1.0 | 0.00 | 0.27 | 0.00 | 92 | 1013.4 |
| 20260507063503 | 46 | 296 | 0.0 | 1.0 | 0.00 | 0.27 | 0.00 | 92 | 1013.6 |
| 20260507063003 | 46 | 296 | 0.0 | 1.0 | 0.00 | 0.27 | 0.00 | 92 | 1013.7 |
| 20260507062503 | 46 | 297 | 0.0 | 1.0 | 0.00 | 0.28 | 0.00 | 92 | 1013.9 |
| 20260507062003 | 46 | 297 | 0.0 | 1.0 | 0.00 | 0.29 | 0.00 | 93 | 1014.0 |
| 20260507061503 | 46 | 298 | 0.0 | 1.0 | 0.00 | 0.29 | 0.00 | 92 | 1013.9 |
| 20260507061003 | 46 | 297 | 0.0 | 1.0 | 0.00 | 0.32 | 0.00 | 92 | 1013.9 |
| 20260507060503 | 46 | 314 | 0.0 | 2.0 | 0.00 | 0.33 | 0.00 | 92 | 1013.7 |
| 20260507060003 | 46 | 317 | 0.0 | 2.0 | 0.00 | 0.35 | 0.00 | 92 | 1013.9 |
| 20260507055503 | 46 | 325 | 0.0 | 2.0 | 0.00 | 0.37 | 0.00 | 92 | 1013.6 |
| 20260507055003 | 47 | 326 | 1.0 | 2.0 | 0.00 | 0.37 | 0.00 | 91 | 1013.5 |
| 20260507054503 | 47 | 326 | 0.0 | 2.0 | 0.00 | 0.39 | 0.00 | 91 | 1013.4 |
| 20260507054003 | 47 | 325 | 0.0 | 1.0 | 0.00 | 0.39 | 0.00 | 91 | 1013.4 |
| 20260507053503 | 47 | 325 | 0.0 | 1.0 | 0.00 | 0.39 | 0.00 | 91 | 1013.6 |
| 20260507053003 | 47 | 326 | 0.0 | 1.0 | 0.00 | 0.39 | 0.00 | 92 | 1013.6 |
| 20260507052503 | 47 | 324 | 0.0 | 1.0 | 0.00 | 0.39 | 0.00 | 92 | 1013.6 |
| 20260507052003 | 47 | 324 | 0.0 | 1.0 | 0.00 | 0.39 | 0.00 | 91 | 1013.7 |
| 20260507051503 | 47 | 321 | 0.0 | 2.0 | 0.00 | 0.39 | 0.00 | 91 | 1013.8 |
| 20260507051024 | 47 | 319 | 0.0 | 2.0 | 0.00 | 0.39 | 0.00 | 91 | 1013.8 |
| 20260507050503 | 47 | 316 | 0.0 | 1.0 | 0.00 | 0.39 | 0.00 | 91 | 1013.7 |
| 20260507050003 | 47 | 315 | 0.0 | 1.0 | 0.00 | 0.39 | 0.00 | 91 | 1013.7 |
| 20260507045503 | 47 | 316 | 0.0 | 1.0 | 0.00 | 0.39 | 0.00 | 91 | 1013.6 |
| 20260507045003 | 48 | 314 | 0.0 | 1.0 | 0.00 | 0.39 | 0.00 | 91 | 1013.8 |
| 20260507044503 | 48 | 315 | 0.0 | 1.0 | 0.00 | 0.39 | 0.00 | 90 | 1013.9 |
| 20260507044003 | 48 | 314 | 0.0 | 1.0 | 0.00 | 0.39 | 0.00 | 90 | 1013.8 |
| 20260507043503 | 48 | 313 | 1.0 | 2.0 | 0.00 | 0.39 | 0.00 | 90 | 1014.0 |
| 20260507043003 | 48 | 314 | 1.0 | 2.0 | 0.00 | 0.39 | 0.00 | 90 | 1014.0 |
| 20260507042503 | 48 | 314 | 0.0 | 1.0 | 0.00 | 0.40 | 0.00 | 90 | 1013.9 |
| 20260507042003 | 48 | 313 | 0.0 | 1.0 | 0.00 | 0.40 | 0.00 | 90 | 1014.0 |
| 20260507041503 | 48 | 313 | 0.0 | 1.0 | 0.00 | 0.40 | 0.00 | 90 | 1014.1 |
| 20260507041003 | 48 | 0 | 0.0 | 0.0 | 0.00 | 0.40 | 0.00 | 89 | 1014.1 |
| 20260507040503 | 48 | 319 | 0.0 | 1.0 | 0.00 | 0.40 | 0.00 | 89 | 1014.1 |
| 20260507040003 | 49 | 315 | 0.0 | 1.0 | 0.00 | 0.40 | 0.00 | 88 | 1014.1 |
| 20260507035503 | 49 | 314 | 0.0 | 1.0 | 0.00 | 0.43 | 0.40 | 88 | 1014.1 |
| 20260507035003 | 49 | 316 | 0.0 | 1.0 | 0.00 | 0.43 | 0.40 | 88 | 1014.1 |
| 20260507034503 | 49 | 0 | 0.0 | 0.0 | 0.00 | 0.43 | 0.40 | 87 | 1014.1 |
| 20260507034003 | 49 | 0 | 0.0 | 0.0 | 0.00 | 0.43 | 0.40 | 85 | 1014.1 |
| 20260507033503 | 50 | 0 | 0.0 | 0.0 | 0.00 | 0.43 | 0.40 | 86 | 1014.0 |
| 20260507033003 | 50 | 0 | 0.0 | 0.0 | 0.00 | 0.43 | 0.40 | 84 | 1014.0 |
| 20260507032503 | 50 | 312 | 0.0 | 2.0 | 0.00 | 0.43 | 0.40 | 84 | 1014.0 |
| 20260507032003 | 50 | 309 | 0.0 | 2.0 | 0.00 | 0.44 | 0.40 | 83 | 1013.9 |
| 20260507031503 | 51 | 307 | 0.0 | 2.0 | 0.00 | 0.44 | 0.40 | 83 | 1013.9 |
| 20260507031003 | 51 | 317 | 0.0 | 1.0 | 0.00 | 0.44 | 0.40 | 82 | 1013.8 |
| 20260507030503 | 51 | 316 | 0.0 | 1.0 | 0.00 | 0.44 | 0.40 | 81 | 1013.7 |
| 20260507030003 | 51 | 315 | 0.0 | 1.0 | 0.00 | 0.44 | 0.40 | 80 | 1013.7 |
| 20260507025524 | 52 | 315 | 0.0 | 1.0 | 0.00 | 0.44 | 0.40 | 81 | 1013.7 |
| 20260507025003 | 52 | 317 | 0.0 | 2.0 | 0.00 | 0.44 | 0.40 | 82 | 1013.6 |
| 20260507024524 | 52 | 325 | 1.0 | 2.0 | 0.00 | 0.44 | 0.40 | 78 | 1013.5 |
| 20260507024024 | 52 | 341 | 1.0 | 2.0 | 0.00 | 0.44 | 0.40 | 79 | 1013.6 |
| 20260507023503 | 52 | 351 | 1.0 | 2.0 | 0.00 | 0.44 | 0.40 | 78 | 1013.5 |
| 20260507023003 | 53 | 342 | 1.0 | 3.0 | 0.00 | 0.44 | 0.40 | 78 | 1013.4 |
| 20260507022503 | 53 | 340 | 1.0 | 3.0 | 0.00 | 0.44 | 0.40 | 78 | 1013.4 |
| 20260507022003 | 53 | 340 | 1.0 | 2.0 | 0.00 | 0.44 | 0.40 | 78 | 1013.3 |
| 20260507021503 | 53 | 333 | 1.0 | 3.0 | 0.00 | 0.44 | 0.40 | 78 | 1013.2 |
| 20260507021024 | 54 | 330 | 1.0 | 3.0 | 0.00 | 0.44 | 0.40 | 77 | 1013.2 |
| 20260507020524 | 54 | 331 | 1.0 | 3.0 | 0.00 | 0.44 | 0.40 | 77 | 1013.2 |
| 20260507020003 | 54 | 327 | 1.0 | 3.0 | 0.00 | 0.44 | 0.40 | 76 | 1013.1 |
| 20260507015524 | 54 | 334 | 2.0 | 3.0 | 0.00 | 0.44 | 0.40 | 75 | 1013.0 |
| 20260507015003 | 54 | 338 | 2.0 | 4.0 | 0.00 | 0.44 | 0.40 | 74 | 1012.9 |
| 20260507014524 | 55 | 336 | 2.0 | 4.0 | 0.00 | 0.44 | 0.40 | 74 | 1012.9 |
| 20260507014003 | 55 | 336 | 2.0 | 4.0 | 0.00 | 0.44 | 0.40 | 75 | 1013.0 |
| 20260507013503 | 55 | 331 | 2.0 | 4.0 | 0.00 | 0.44 | 0.40 | 74 | 1013.0 |
| 20260507013003 | 55 | 328 | 2.0 | 5.0 | 0.00 | 0.44 | 0.40 | 73 | 1013.1 |
| 20260507012524 | 55 | 329 | 2.0 | 5.0 | 0.00 | 0.44 | 0.40 | 72 | 1013.2 |
| 20260507012003 | 55 | 328 | 2.0 | 5.0 | 0.00 | 0.44 | 0.40 | 73 | 1013.1 |
| 20260507011503 | 55 | 323 | 2.0 | 3.0 | 0.00 | 0.44 | 0.40 | 73 | 1012.9 |
| 20260507011024 | 56 | 314 | 2.0 | 5.0 | 0.00 | 0.44 | 0.40 | 74 | 1013.0 |
| 20260507010503 | 56 | 307 | 2.0 | 5.0 | 0.00 | 0.44 | 0.40 | 73 | 1013.1 |
| 20260507010024 | 56 | 311 | 2.0 | 5.0 | 0.00 | 0.44 | 0.40 | 74 | 1013.0 |
| 20260507005503 | 56 | 315 | 2.0 | 5.0 | 0.00 | 0.45 | 0.40 | 72 | 1012.8 |
| 20260507005003 | 56 | 310 | 2.0 | 4.0 | 0.00 | 0.45 | 0.40 | 73 | 1012.7 |
| 20260507004524 | 56 | 304 | 2.0 | 4.0 | 0.00 | 0.46 | 0.40 | 73 | 1012.5 |
| 20260507004003 | 56 | 301 | 2.0 | 3.0 | 0.00 | 0.46 | 0.40 | 73 | 1012.6 |
| 20260507003503 | 56 | 297 | 1.0 | 3.0 | 0.00 | 0.47 | 0.40 | 74 | 1012.6 |
| 20260507003003 | 56 | 294 | 1.0 | 2.0 | 0.00 | 0.48 | 0.40 | 74 | 1012.5 |
| 20260507002503 | 56 | 290 | 1.0 | 3.0 | 0.00 | 0.48 | 0.40 | 73 | 1012.6 |
| 20260507002024 | 56 | 288 | 1.0 | 3.0 | 0.00 | 0.48 | 0.40 | 75 | 1012.5 |
| 20260507001503 | 56 | 287 | 1.0 | 2.0 | 0.00 | 0.48 | 0.40 | 73 | 1012.4 |
| 20260507001003 | 57 | 288 | 1.0 | 2.0 | 0.00 | 0.48 | 0.40 | 72 | 1012.3 |
| 20260507000503 | 57 | 290 | 1.0 | 2.0 | 0.00 | 0.48 | 0.40 | 73 | 1012.3 |
| 20260507000003 | 57 | 291 | 2.0 | 3.0 | 0.00 | 0.48 | 0.40 | 73 | 1012.3 |
| 20260506235503 | 57 | 289 | 2.0 | 3.0 | 0.00 | 0.48 | 0.40 | 73 | 1012.2 |
| 20260506235003 | 57 | 290 | 2.0 | 3.0 | 0.00 | 0.48 | 0.40 | 72 | 1012.4 |